| time (UTC) | temp C | wind direction | speed KPH | gust KPH | rain 1hr cm | rain 24hr cm | rain mn cm | humidity % | barometer mb |
| 20260510184022 | 28 | 216 | 4.8 | 16.1 | 0.00 | 0.00 | 0.00 | 30 | 1014.7 |
| 20260510183748 | 28 | 166 | 4.8 | 11.3 | 0.00 | 0.00 | 0.00 | 29 | 1016.8 |
| 20260510183522 | 27 | 217 | 3.2 | 12.9 | 0.00 | 0.00 | 0.00 | 29 | 1014.6 |
| 20260510183041 | 27 | 20 | 3.2 | 12.9 | 0.00 | 0.00 | 0.00 | 28 | 1014.7 |
| 20260510182521 | 27 | 223 | 3.2 | 11.3 | 0.00 | 0.00 | 0.00 | 29 | 1014.8 |
| 20260510182021 | 27 | 250 | 1.6 | 11.3 | 0.00 | 0.00 | 0.00 | 28 | 1014.9 |
| 20260510181632 | 28 | 160 | 1.6 | 14.5 | 0.00 | 0.00 | 0.00 | 29 | 1016.8 |
| 20260510181602 | 28 | 108 | 1.6 | 11.3 | 0.00 | 0.00 | 0.00 | 29 | 1014.9 |
| 20260510181021 | 27 | 187 | 1.6 | 16.1 | 0.00 | 0.00 | 0.00 | 30 | 1014.9 |
| 20260510180641 | 28 | 183 | 3.2 | 14.5 | 0.00 | 0.00 | 0.00 | 30 | 1017.0 |
| 20260510180522 | 27 | 64 | 1.6 | 16.1 | 0.00 | 0.00 | 0.00 | 29 | 1014.9 |
| 20260510180059 | 27 | 181 | 4.8 | 16.1 | 0.00 | 0.00 | 0.00 | 31 | 1015.1 |
| 20260510175651 | 27 | 228 | 1.6 | 8.0 | 0.00 | 0.00 | 0.00 | 30 | 1017.1 |
| 20260510175521 | 27 | 308 | 1.6 | 11.3 | 0.00 | 0.00 | 0.00 | 30 | 1015.2 |
| 20260510175021 | 27 | 321 | 1.6 | 19.3 | 0.00 | 0.00 | 0.00 | 31 | 1015.2 |
| 20260510174637 | 27 | 341 | 6.4 | 17.7 | 0.00 | 0.00 | 0.00 | 32 | 1017.2 |
| 20260510174536 | 27 | 239 | 4.8 | 19.3 | 0.00 | 0.00 | 0.00 | 30 | 1015.3 |
| 20260510174023 | 27 | 174 | 6.4 | 19.3 | 0.00 | 0.00 | 0.00 | 33 | 1015.4 |
| 20260510173522 | 27 | 114 | 4.8 | 24.1 | 0.00 | 0.00 | 0.00 | 34 | 1015.4 |
| 20260510173041 | 27 | 189 | 8.0 | 24.1 | 0.00 | 0.00 | 0.00 | 31 | 1015.4 |
| 20260510172521 | 27 | 229 | 9.7 | 24.1 | 0.00 | 0.00 | 0.00 | 30 | 1015.4 |
| 20260510172021 | 27 | 164 | 3.2 | 14.5 | 0.00 | 0.00 | 0.00 | 32 | 1015.3 |
| 20260510171548 | 27 | 191 | 3.2 | 14.5 | 0.00 | 0.00 | 0.00 | 33 | 1015.3 |
| 20260510171323 | 27 | 122 | 4.8 | 12.9 | 0.00 | 0.00 | 0.00 | 33 | 1017.3 |
| 20260510171020 | 27 | 148 | 8.0 | 14.5 | 0.00 | 0.00 | 0.00 | 33 | 1015.4 |
| 20260510170520 | 27 | 163 | 6.4 | 14.5 | 0.00 | 0.00 | 0.00 | 32 | 1015.4 |
| 20260510170331 | 27 | 142 | 4.8 | 11.3 | 0.00 | 0.00 | 0.00 | 31 | 1017.3 |
| 20260510170041 | 27 | 126 | 3.2 | 14.5 | 0.00 | 0.00 | 0.00 | 32 | 1015.5 |
| 20260510165522 | 26 | 214 | 6.4 | 16.1 | 0.00 | 0.00 | 0.00 | 31 | 1015.4 |
| 20260510165305 | 26 | 174 | 1.6 | 12.9 | 0.00 | 0.00 | 0.00 | 36 | 1017.5 |
| 20260510165023 | 26 | 0 | 1.6 | 16.1 | 0.00 | 0.00 | 0.00 | 35 | 1015.6 |
| 20260510164545 | 26 | 0 | 6.4 | 16.1 | 0.00 | 0.00 | 0.00 | 32 | 1015.6 |
| 20260510164314 | 27 | 144 | 6.4 | 12.9 | 0.00 | 0.00 | 0.00 | 35 | 1017.7 |
| 20260510164021 | 26 | 188 | 4.8 | 14.5 | 0.00 | 0.00 | 0.00 | 33 | 1015.7 |
| 20260510163521 | 27 | 191 | 8.0 | 14.5 | 0.00 | 0.00 | 0.00 | 35 | 1015.7 |
| 20260510163311 | 27 | 155 | 4.8 | 12.9 | 0.00 | 0.00 | 0.00 | 36 | 1017.7 |
| 20260510163040 | 26 | 191 | 6.4 | 14.5 | 0.00 | 0.00 | 0.00 | 34 | 1015.7 |
| 20260510162522 | 26 | 224 | 6.4 | 14.5 | 0.00 | 0.00 | 0.00 | 35 | 1015.8 |
| 20260510162335 | 26 | 142 | 3.2 | 12.9 | 0.00 | 0.00 | 0.00 | 34 | 1017.9 |
| 20260510162022 | 26 | 206 | 3.2 | 9.7 | 0.00 | 0.00 | 0.00 | 32 | 1015.8 |
| 20260510161534 | 26 | 215 | 3.2 | 11.3 | 0.00 | 0.00 | 0.00 | 27 | 1015.9 |
| 20260510161344 | 26 | 214 | 3.2 | 9.7 | 0.00 | 0.00 | 0.00 | 30 | 1017.9 |
| 20260510161021 | 26 | 212 | 3.2 | 11.3 | 0.00 | 0.00 | 0.00 | 35 | 1016.0 |
| 20260510160521 | 26 | 174 | 4.8 | 11.3 | 0.00 | 0.00 | 0.00 | 37 | 1015.9 |
| 20260510160041 | 26 | 200 | 3.2 | 9.7 | 0.00 | 0.00 | 0.00 | 39 | 1015.9 |
| 20260510155524 | 26 | 216 | 3.2 | 8.0 | 0.00 | 0.00 | 0.00 | 39 | 1015.9 |
| 20260510155022 | 26 | 24 | 1.6 | 14.5 | 0.00 | 0.00 | 0.00 | 36 | 1016.0 |
| 20260510154540 | 26 | 191 | 3.2 | 14.5 | 0.00 | 0.00 | 0.00 | 43 | 1015.9 |
| 20260510154052 | 25 | 2 | 1.6 | 9.7 | 0.00 | 0.00 | 0.00 | 40 | 1018.0 |
| 20260510154021 | 25 | 226 | 1.6 | 11.3 | 0.00 | 0.00 | 0.00 | 39 | 1016.0 |
| 20260510153521 | 25 | 279 | 3.2 | 8.0 | 0.00 | 0.00 | 0.00 | 40 | 1016.0 |
| 20260510153112 | 25 | 284 | 1.6 | 6.4 | 0.00 | 0.00 | 0.00 | 43 | 1018.1 |
| 20260510153041 | 25 | 259 | 1.6 | 6.4 | 0.00 | 0.00 | 0.00 | 46 | 1016.1 |
| 20260510152521 | 25 | 337 | 3.2 | 6.4 | 0.00 | 0.00 | 0.00 | 42 | 1016.0 |
| 20260510152127 | 25 | 220 | 1.6 | 6.4 | 0.00 | 0.00 | 0.00 | 45 | 1018.1 |
| 20260510152024 | 25 | 247 | 1.6 | 8.0 | 0.00 | 0.00 | 0.00 | 45 | 1016.0 |
| 20260510151544 | 25 | 218 | 3.2 | 8.0 | 0.00 | 0.00 | 0.00 | 45 | 1016.0 |
| 20260510151142 | 25 | 226 | 1.6 | 4.8 | 0.00 | 0.00 | 0.00 | 45 | 1018.0 |
| 20260510151021 | 25 | 138 | 1.6 | 6.4 | 0.00 | 0.00 | 0.00 | 44 | 1016.0 |
| 20260510150524 | 24 | 187 | 1.6 | 6.4 | 0.00 | 0.00 | 0.00 | 44 | 1016.2 |
| 20260510150125 | 25 | 307 | 0.0 | 6.4 | 0.00 | 0.00 | 0.00 | 46 | 1018.1 |
| 20260510150054 | 24 | 38 | 1.6 | 4.8 | 0.00 | 0.00 | 0.00 | 47 | 1016.1 |
| 20260510145522 | 23 | 21 | 1.6 | 8.0 | 0.00 | 0.00 | 0.00 | 44 | 1016.1 |
| 20260510145146 | 24 | 297 | 1.6 | 9.7 | 0.00 | 0.00 | 0.00 | 46 | 1018.1 |
| 20260510145021 | 24 | 210 | 4.8 | 11.3 | 0.00 | 0.00 | 0.00 | 44 | 1016.0 |
| 20260510144542 | 24 | 326 | 1.6 | 11.3 | 0.00 | 0.00 | 0.00 | 47 | 1016.0 |
| 20260510144113 | 24 | 213 | 3.2 | 9.7 | 0.00 | 0.00 | 0.00 | 46 | 1018.0 |
| 20260510144021 | 24 | 248 | 4.8 | 11.3 | 0.00 | 0.00 | 0.00 | 46 | 1016.0 |
| 20260510143521 | 23 | 235 | 4.8 | 11.3 | 0.00 | 0.00 | 0.00 | 46 | 1016.1 |
| 20260510143138 | 23 | 126 | 0.0 | 6.4 | 0.00 | 0.00 | 0.00 | 46 | 1018.2 |
| 20260510143041 | 23 | 0 | 1.6 | 8.0 | 0.00 | 0.00 | 0.00 | 47 | 1016.2 |
| 20260510142521 | 23 | 141 | 1.6 | 8.0 | 0.00 | 0.00 | 0.00 | 49 | 1016.1 |
| 20260510142120 | 23 | 307 | 1.6 | 4.8 | 0.00 | 0.00 | 0.00 | 51 | 1018.2 |
| 20260510142021 | 23 | 262 | 1.6 | 6.4 | 0.00 | 0.00 | 0.00 | 50 | 1016.2 |
| 20260510141541 | 22 | 331 | 1.6 | 6.4 | 0.00 | 0.00 | 0.00 | 49 | 1016.1 |
| 20260510141100 | 22 | 285 | 1.6 | 6.4 | 0.00 | 0.00 | 0.00 | 51 | 1018.2 |
| 20260510141022 | 22 | 253 | 1.6 | 6.4 | 0.00 | 0.00 | 0.00 | 51 | 1016.1 |
| 20260510140518 | 22 | 330 | 1.6 | 4.8 | 0.00 | 0.00 | 0.00 | 51 | 1016.1 |
| 20260510140041 | 22 | 0 | 0.0 | 8.0 | 0.00 | 0.00 | 0.00 | 55 | 1016.1 |
| 20260510140031 | 22 | 288 | 0.0 | 6.4 | 0.00 | 0.00 | 0.00 | 55 | 1018.2 |
| 20260510135521 | 22 | 332 | 1.6 | 8.0 | 0.00 | 0.00 | 0.00 | 55 | 1016.1 |
| 20260510135057 | 22 | 212 | 1.6 | 4.8 | 0.00 | 0.00 | 0.00 | 58 | 1018.2 |
| 20260510135024 | 22 | 226 | 3.2 | 8.0 | 0.00 | 0.00 | 0.00 | 59 | 1016.2 |
| 20260510134539 | 21 | 174 | 1.6 | 8.0 | 0.00 | 0.00 | 0.00 | 59 | 1016.2 |
| 20260510134051 | 21 | 273 | 1.6 | 4.8 | 0.00 | 0.00 | 0.00 | 61 | 1018.2 |
| 20260510134021 | 21 | 254 | 1.6 | 6.4 | 0.00 | 0.00 | 0.00 | 63 | 1016.1 |
| 20260510133521 | 21 | 319 | 1.6 | 6.4 | 0.00 | 0.00 | 0.00 | 63 | 1016.1 |
| 20260510133042 | 20 | 230 | 0.0 | 6.4 | 0.00 | 0.00 | 0.00 | 64 | 1016.0 |
| 20260510133039 | 21 | 230 | 0.0 | 6.4 | 0.00 | 0.00 | 0.00 | 64 | 1018.0 |
| 20260510132521 | 20 | 274 | 1.6 | 8.0 | 0.00 | 0.00 | 0.00 | 67 | 1016.0 |
| 20260510132025 | 20 | 204 | 1.6 | 6.4 | 0.00 | 0.00 | 0.00 | 68 | 1018.0 |
| 20260510132021 | 20 | 204 | 3.2 | 8.0 | 0.00 | 0.00 | 0.00 | 68 | 1016.0 |
| 20260510131543 | 20 | 258 | 0.0 | 3.2 | 0.00 | 0.00 | 0.00 | 74 | 1016.1 |
| 20260510131024 | 20 | 152 | 0.0 | 3.2 | 0.00 | 0.00 | 0.00 | 77 | 1018.1 |
| 20260510131021 | 20 | 152 | 0.0 | 3.2 | 0.00 | 0.00 | 0.00 | 77 | 1016.1 |
| 20260510130526 | 19 | 135 | 0.0 | 3.2 | 0.00 | 0.00 | 0.00 | 80 | 1015.9 |
| 20260510130041 | 18 | 135 | 0.0 | 4.8 | 0.00 | 0.00 | 0.00 | 82 | 1015.9 |
| 20260510125959 | 19 | 135 | 1.6 | 3.2 | 0.00 | 0.00 | 0.00 | 83 | 1017.9 |
| 20260510125520 | 18 | 135 | 1.6 | 4.8 | 0.00 | 0.00 | 0.00 | 86 | 1016.1 |
| 20260510125021 | 17 | 141 | 1.6 | 4.8 | 0.00 | 0.00 | 0.00 | 88 | 1016.0 |
| 20260510125006 | 18 | 141 | 0.0 | 1.6 | 0.00 | 0.00 | 0.00 | 88 | 1018.1 |
| 20260510124540 | 17 | 141 | 1.6 | 3.2 | 0.00 | 0.00 | 0.00 | 88 | 1016.1 |
| 20260510124023 | 17 | 141 | 0.0 | 4.8 | 0.00 | 0.00 | 0.00 | 89 | 1016.0 |
| 20260510123943 | 17 | 141 | 0.0 | 1.6 | 0.00 | 0.00 | 0.00 | 89 | 1018.0 |
| 20260510123522 | 16 | 141 | 1.6 | 4.8 | 0.00 | 0.00 | 0.00 | 89 | 1015.9 |
| 20260510123041 | 15 | 0 | 1.6 | 3.2 | 0.00 | 0.00 | 0.00 | 89 | 1015.8 |
| 20260510122943 | 15 | 170 | 0.0 | 1.6 | 0.00 | 0.00 | 0.00 | 89 | 1017.9 |
| 20260510122521 | 14 | 0 | 0.0 | 1.6 | 0.00 | 0.00 | 0.00 | 89 | 1015.7 |
| 20260510122021 | 13 | 0 | 0.0 | 1.6 | 0.00 | 0.00 | 0.00 | 89 | 1015.6 |
| 20260510122004 | 13 | 170 | 0.0 | 0.0 | 0.00 | 0.00 | 0.00 | 89 | 1017.6 |
| 20260510121540 | 12 | 0 | 0.0 | 1.6 | 0.00 | 0.00 | 0.00 | 89 | 1015.5 |
| 20260510121021 | 12 | 0 | 0.0 | 1.6 | 0.00 | 0.00 | 0.00 | 89 | 1015.5 |
| 20260510121014 | 12 | 105 | 0.0 | 0.0 | 0.00 | 0.00 | 0.00 | 89 | 1017.5 |
| 20260510120527 | 12 | 0 | 0.0 | 1.6 | 0.00 | 0.00 | 0.00 | 89 | 1015.2 |
| 20260510120039 | 11 | 0 | 0.0 | 1.6 | 0.00 | 0.00 | 0.00 | 89 | 1015.2 |
| 20260510115953 | 12 | 102 | 0.0 | 0.0 | 0.00 | 0.00 | 0.00 | 89 | 1017.2 |
| 20260510115524 | 11 | 0 | 0.0 | 1.6 | 0.00 | 0.00 | 0.00 | 89 | 1014.9 |
| 20260510115025 | 11 | 0 | 0.0 | 1.6 | 0.00 | 0.00 | 0.00 | 89 | 1014.9 |
| 20260510114945 | 11 | 102 | 0.0 | 0.0 | 0.00 | 0.00 | 0.00 | 89 | 1016.9 |
| 20260510114550 | 11 | 0 | 0.0 | 1.6 | 0.00 | 0.00 | 0.00 | 89 | 1014.8 |
| 20260510114021 | 10 | 0 | 0.0 | 0.0 | 0.00 | 0.00 | 0.00 | 89 | 1014.7 |
| 20260510113921 | 11 | 179 | 0.0 | 0.0 | 0.00 | 0.00 | 0.00 | 89 | 1016.7 |
| 20260510113520 | 10 | 0 | 0.0 | 0.0 | 0.00 | 0.00 | 0.00 | 89 | 1014.7 |
| 20260510113042 | 10 | 0 | 0.0 | 0.0 | 0.00 | 0.00 | 0.00 | 89 | 1014.6 |
| 20260510112900 | 10 | 179 | 0.0 | 0.0 | 0.00 | 0.00 | 0.00 | 89 | 1016.6 |
| 20260510112521 | 10 | 0 | 0.0 | 0.0 | 0.00 | 0.00 | 0.00 | 89 | 1014.6 |
| 20260510112021 | 10 | 0 | 0.0 | 0.0 | 0.00 | 0.00 | 0.00 | 89 | 1014.5 |
| 20260510111908 | 10 | 179 | 0.0 | 0.0 | 0.00 | 0.00 | 0.00 | 89 | 1016.5 |
| 20260510111541 | 10 | 0 | 0.0 | 0.0 | 0.00 | 0.00 | 0.00 | 89 | 1014.4 |
| 20260510111018 | 10 | 0 | 0.0 | 0.0 | 0.00 | 0.00 | 0.00 | 89 | 1014.4 |
| 20260510110839 | 10 | 179 | 0.0 | 0.0 | 0.00 | 0.00 | 0.00 | 89 | 1016.4 |
| 20260510110520 | 10 | 0 | 0.0 | 0.0 | 0.00 | 0.00 | 0.00 | 89 | 1014.4 |
| 20260510110044 | 10 | 0 | 0.0 | 0.0 | 0.00 | 0.00 | 0.00 | 89 | 1014.3 |
| 20260510105843 | 10 | 179 | 0.0 | 0.0 | 0.00 | 0.00 | 0.00 | 89 | 1016.3 |
| 20260510105520 | 10 | 0 | 0.0 | 0.0 | 0.00 | 0.00 | 0.00 | 89 | 1014.2 |
| 20260510105021 | 10 | 0 | 0.0 | 0.0 | 0.00 | 0.00 | 0.00 | 89 | 1014.0 |
| 20260510104811 | 10 | 179 | 0.0 | 0.0 | 0.00 | 0.00 | 0.00 | 89 | 1016.1 |
| 20260510104539 | 10 | 0 | 0.0 | 0.0 | 0.00 | 0.00 | 0.00 | 89 | 1014.0 |
| 20260510104020 | 10 | 0 | 0.0 | 0.0 | 0.00 | 0.00 | 0.00 | 89 | 1013.9 |
| 20260510103521 | 10 | 0 | 0.0 | 0.0 | 0.00 | 0.00 | 0.00 | 89 | 1013.8 |
| 20260510103040 | 10 | 0 | 0.0 | 0.0 | 0.00 | 0.00 | 0.00 | 89 | 1013.7 |
| 20260510102700 | 11 | 179 | 0.0 | 0.0 | 0.00 | 0.00 | 0.00 | 89 | 1015.7 |
| 20260510102521 | 11 | 0 | 0.0 | 0.0 | 0.00 | 0.00 | 0.00 | 89 | 1013.6 |
| 20260510102027 | 11 | 0 | 0.0 | 0.0 | 0.00 | 0.00 | 0.00 | 89 | 1013.6 |
| 20260510101639 | 11 | 179 | 0.0 | 0.0 | 0.00 | 0.00 | 0.00 | 89 | 1015.6 |
| 20260510101535 | 11 | 0 | 0.0 | 0.0 | 0.00 | 0.00 | 0.00 | 89 | 1013.5 |
| 20260510101021 | 11 | 0 | 0.0 | 0.0 | 0.00 | 0.00 | 0.00 | 89 | 1013.6 |
| 20260510100624 | 11 | 179 | 0.0 | 0.0 | 0.00 | 0.00 | 0.00 | 89 | 1015.6 |
| 20260510100521 | 11 | 0 | 0.0 | 0.0 | 0.00 | 0.00 | 0.00 | 89 | 1013.5 |
| 20260510100046 | 11 | 0 | 0.0 | 0.0 | 0.00 | 0.00 | 0.00 | 89 | 1013.5 |
| 20260510095604 | 11 | 179 | 0.0 | 0.0 | 0.00 | 0.00 | 0.00 | 89 | 1015.4 |
| 20260510095524 | 11 | 0 | 0.0 | 0.0 | 0.00 | 0.00 | 0.00 | 89 | 1013.4 |
| 20260510095020 | 11 | 0 | 0.0 | 0.0 | 0.00 | 0.00 | 0.00 | 89 | 1013.4 |
| 20260510094618 | 11 | 179 | 0.0 | 0.0 | 0.00 | 0.00 | 0.00 | 89 | 1015.3 |
| 20260510094547 | 11 | 0 | 0.0 | 0.0 | 0.00 | 0.00 | 0.00 | 89 | 1013.3 |
| 20260510094020 | 11 | 0 | 0.0 | 0.0 | 0.00 | 0.00 | 0.00 | 89 | 1013.2 |
| 20260510093520 | 11 | 0 | 0.0 | 0.0 | 0.00 | 0.00 | 0.00 | 89 | 1013.2 |
| 20260510093043 | 11 | 0 | 0.0 | 0.0 | 0.00 | 0.00 | 0.00 | 89 | 1013.2 |
| 20260510092539 | 11 | 179 | 0.0 | 0.0 | 0.00 | 0.00 | 0.00 | 89 | 1015.2 |
| 20260510092521 | 11 | 0 | 0.0 | 0.0 | 0.00 | 0.00 | 0.00 | 89 | 1013.2 |
| 20260510092023 | 11 | 0 | 0.0 | 0.0 | 0.00 | 0.00 | 0.00 | 89 | 1013.3 |
| 20260510091543 | 11 | 0 | 0.0 | 0.0 | 0.00 | 0.00 | 0.00 | 89 | 1013.2 |
| 20260510091020 | 11 | 0 | 0.0 | 0.0 | 0.00 | 0.00 | 0.00 | 89 | 1013.2 |
| 20260510090520 | 11 | 0 | 0.0 | 0.0 | 0.00 | 0.00 | 0.00 | 89 | 1013.2 |
| 20260510090420 | 12 | 179 | 0.0 | 0.0 | 0.00 | 0.00 | 0.00 | 89 | 1015.2 |
| 20260510090039 | 12 | 0 | 0.0 | 0.0 | 0.00 | 0.00 | 0.00 | 89 | 1013.1 |
| 20260510085521 | 12 | 0 | 0.0 | 0.0 | 0.00 | 0.00 | 0.00 | 89 | 1013.0 |
| 20260510085419 | 12 | 179 | 0.0 | 0.0 | 0.00 | 0.00 | 0.00 | 89 | 1015.0 |
| 20260510085021 | 12 | 0 | 0.0 | 1.6 | 0.00 | 0.00 | 0.00 | 89 | 1013.0 |
| 20260510084535 | 12 | 0 | 0.0 | 1.6 | 0.00 | 0.00 | 0.00 | 89 | 1013.0 |
| 20260510084436 | 12 | 179 | 0.0 | 0.0 | 0.00 | 0.00 | 0.00 | 89 | 1014.9 |
| 20260510084021 | 12 | 0 | 0.0 | 1.6 | 0.00 | 0.00 | 0.00 | 89 | 1012.9 |
| 20260510083521 | 12 | 0 | 0.0 | 0.0 | 0.00 | 0.00 | 0.00 | 89 | 1013.0 |
| 20260510083413 | 12 | 179 | 0.0 | 0.0 | 0.00 | 0.00 | 0.00 | 89 | 1015.0 |
| 20260510083053 | 12 | 0 | 0.0 | 0.0 | 0.00 | 0.00 | 0.00 | 89 | 1012.9 |
| 20260510082520 | 12 | 0 | 0.0 | 0.0 | 0.00 | 0.00 | 0.00 | 89 | 1012.8 |
| 20260510082022 | 12 | 0 | 0.0 | 0.0 | 0.00 | 0.00 | 0.00 | 89 | 1012.7 |
| 20260510081544 | 12 | 0 | 0.0 | 0.0 | 0.00 | 0.00 | 0.00 | 89 | 1012.7 |
| 20260510081250 | 12 | 179 | 0.0 | 0.0 | 0.00 | 0.00 | 0.00 | 89 | 1014.7 |
| 20260510081021 | 12 | 0 | 0.0 | 0.0 | 0.00 | 0.00 | 0.00 | 89 | 1012.5 |
| 20260510080521 | 12 | 0 | 0.0 | 0.0 | 0.00 | 0.00 | 0.00 | 89 | 1012.6 |
| 20260510080227 | 12 | 179 | 0.0 | 0.0 | 0.00 | 0.00 | 0.00 | 89 | 1014.5 |
| 20260510080042 | 12 | 0 | 0.0 | 0.0 | 0.00 | 0.00 | 0.00 | 89 | 1012.5 |
| 20260510075520 | 12 | 0 | 0.0 | 0.0 | 0.00 | 0.00 | 0.00 | 89 | 1012.5 |
| 20260510075225 | 13 | 179 | 0.0 | 0.0 | 0.00 | 0.00 | 0.00 | 89 | 1014.4 |
| 20260510075020 | 12 | 0 | 0.0 | 0.0 | 0.00 | 0.00 | 0.00 | 89 | 1012.4 |
| 20260510074541 | 12 | 0 | 0.0 | 0.0 | 0.00 | 0.00 | 0.00 | 88 | 1012.3 |
| 20260510074024 | 12 | 0 | 0.0 | 0.0 | 0.00 | 0.00 | 0.00 | 88 | 1012.3 |
| 20260510073521 | 13 | 0 | 0.0 | 0.0 | 0.00 | 0.00 | 0.00 | 88 | 1012.3 |
| 20260510073057 | 13 | 179 | 0.0 | 0.0 | 0.00 | 0.00 | 0.00 | 89 | 1014.3 |
| 20260510073044 | 13 | 0 | 0.0 | 0.0 | 0.00 | 0.00 | 0.00 | 89 | 1012.2 |
| 20260510072524 | 13 | 0 | 0.0 | 0.0 | 0.00 | 0.00 | 0.00 | 89 | 1012.3 |
| 20260510072035 | 13 | 179 | 0.0 | 1.6 | 0.00 | 0.00 | 0.00 | 88 | 1014.3 |
| 20260510072021 | 13 | 0 | 0.0 | 1.6 | 0.00 | 0.00 | 0.00 | 88 | 1012.3 |
| 20260510071538 | 13 | 0 | 0.0 | 1.6 | 0.00 | 0.00 | 0.00 | 88 | 1012.2 |
| 20260510071020 | 13 | 179 | 0.0 | 0.0 | 0.00 | 0.00 | 0.00 | 88 | 1014.2 |
| 20260510070521 | 13 | 0 | 1.6 | 3.2 | 0.00 | 0.00 | 0.00 | 88 | 1012.1 |
| 20260510070046 | 13 | 179 | 0.0 | 1.6 | 0.00 | 0.00 | 0.00 | 88 | 1012.0 |
| 20260510070034 | 13 | 179 | 0.0 | 0.0 | 0.00 | 0.00 | 0.00 | 88 | 1014.0 |
| 20260510065522 | 13 | 0 | 0.0 | 1.6 | 0.00 | 0.00 | 0.00 | 88 | 1012.1 |
| 20260510065024 | 13 | 0 | 0.0 | 1.6 | 0.00 | 0.00 | 0.00 | 88 | 1012.2 |
| 20260510065012 | 13 | 179 | 0.0 | 0.0 | 0.00 | 0.00 | 0.00 | 88 | 1014.2 |
| 20260510064542 | 13 | 0 | 0.0 | 3.2 | 0.00 | 0.00 | 0.00 | 88 | 1012.2 |
| 20260510064018 | 13 | 179 | 0.0 | 3.2 | 0.00 | 0.00 | 0.00 | 88 | 1012.3 |
| 20260510063955 | 13 | 179 | 0.0 | 0.0 | 0.00 | 0.00 | 0.00 | 88 | 1014.3 |
| 20260510063522 | 13 | 0 | 1.6 | 3.2 | 0.00 | 0.00 | 0.00 | 88 | 1012.3 |
| 20260510063041 | 13 | 0 | 0.0 | 0.0 | 0.00 | 0.00 | 0.00 | 88 | 1012.1 |
| 20260510063002 | 13 | 179 | 0.0 | 0.0 | 0.00 | 0.00 | 0.00 | 88 | 1014.2 |
| 20260510062522 | 13 | 0 | 0.0 | 0.0 | 0.00 | 0.00 | 0.00 | 88 | 1012.1 |
| 20260510062022 | 13 | 0 | 0.0 | 0.0 | 0.00 | 0.00 | 0.00 | 88 | 1012.3 |
| 20260510061949 | 14 | 179 | 0.0 | 0.0 | 0.00 | 0.00 | 0.00 | 88 | 1014.3 |
| 20260510061540 | 13 | 0 | 0.0 | 0.0 | 0.00 | 0.00 | 0.00 | 88 | 1012.3 |
| 20260510061022 | 13 | 0 | 0.0 | 3.2 | 0.00 | 0.00 | 0.00 | 88 | 1012.3 |
| 20260510061011 | 14 | 179 | 0.0 | 0.0 | 0.00 | 0.00 | 0.00 | 88 | 1014.3 |
| 20260510060525 | 13 | 0 | 0.0 | 3.2 | 0.00 | 0.00 | 0.00 | 88 | 1012.3 |
| 20260510060043 | 13 | 0 | 0.0 | 3.2 | 0.00 | 0.00 | 0.00 | 88 | 1012.3 |
| 20260510060009 | 14 | 179 | 0.0 | 0.0 | 0.00 | 0.00 | 0.00 | 88 | 1014.3 |
| 20260510055522 | 13 | 179 | 0.0 | 3.2 | 0.00 | 0.00 | 0.00 | 88 | 1012.2 |
| 20260510055033 | 14 | 179 | 0.0 | 1.6 | 0.00 | 0.00 | 0.00 | 88 | 1014.2 |
| 20260510055023 | 14 | 179 | 1.6 | 3.2 | 0.00 | 0.00 | 0.00 | 88 | 1012.2 |
| 20260510054542 | 14 | 179 | 0.0 | 3.2 | 0.00 | 0.00 | 0.00 | 88 | 1012.1 |
| 20260510054047 | 15 | 179 | 0.0 | 1.6 | 0.00 | 0.00 | 0.00 | 88 | 1014.1 |
| 20260510054026 | 14 | 179 | 1.6 | 3.2 | 0.00 | 0.00 | 0.00 | 88 | 1012.0 |
| 20260510053521 | 14 | 0 | 0.0 | 1.6 | 0.00 | 0.00 | 0.00 | 88 | 1012.3 |
| 20260510053043 | 14 | 0 | 0.0 | 1.6 | 0.00 | 0.00 | 0.00 | 88 | 1012.4 |
| 20260510053027 | 15 | 179 | 0.0 | 0.0 | 0.00 | 0.00 | 0.00 | 88 | 1014.4 |
| 20260510052522 | 15 | 0 | 0.0 | 1.6 | 0.00 | 0.00 | 0.00 | 88 | 1012.4 |
| 20260510052033 | 15 | 179 | 0.0 | 0.0 | 0.00 | 0.00 | 0.00 | 88 | 1014.5 |
| 20260510052024 | 15 | 0 | 0.0 | 1.6 | 0.00 | 0.00 | 0.00 | 88 | 1012.4 |
| 20260510051542 | 15 | 0 | 0.0 | 0.0 | 0.00 | 0.00 | 0.00 | 88 | 1012.5 |
| 20260510051037 | 15 | 179 | 0.0 | 0.0 | 0.00 | 0.00 | 0.00 | 88 | 1014.6 |
| 20260510051023 | 15 | 0 | 0.0 | 0.0 | 0.00 | 0.00 | 0.00 | 87 | 1012.6 |
| 20260510050522 | 15 | 0 | 0.0 | 0.0 | 0.00 | 0.00 | 0.00 | 87 | 1012.5 |
| 20260510050042 | 15 | 0 | 0.0 | 0.0 | 0.00 | 0.00 | 0.00 | 87 | 1012.6 |
| 20260510045526 | 15 | 0 | 0.0 | 3.2 | 0.00 | 0.00 | 0.00 | 87 | 1012.5 |
| 20260510045023 | 15 | 0 | 0.0 | 3.2 | 0.00 | 0.00 | 0.00 | 87 | 1012.4 |
| 20260510044830 | 15 | 179 | 0.0 | 0.0 | 0.00 | 0.00 | 0.00 | 87 | 1014.4 |
| 20260510044544 | 15 | 179 | 0.0 | 3.2 | 0.00 | 0.00 | 0.00 | 87 | 1012.5 |
| 20260510044022 | 15 | 0 | 0.0 | 3.2 | 0.00 | 0.00 | 0.00 | 87 | 1012.4 |
| 20260510043522 | 15 | 0 | 0.0 | 3.2 | 0.00 | 0.00 | 0.00 | 87 | 1012.5 |
| 20260510043036 | 15 | 179 | 1.6 | 3.2 | 0.00 | 0.00 | 0.00 | 87 | 1012.5 |
| 20260510042716 | 16 | 179 | 0.0 | 0.0 | 0.00 | 0.00 | 0.00 | 87 | 1014.4 |
| 20260510042523 | 15 | 0 | 0.0 | 1.6 | 0.00 | 0.00 | 0.00 | 87 | 1012.4 |
| 20260510042022 | 15 | 0 | 0.0 | 3.2 | 0.00 | 0.00 | 0.00 | 87 | 1012.4 |
| 20260510041729 | 16 | 179 | 0.0 | 0.0 | 0.00 | 0.00 | 0.00 | 86 | 1014.4 |
| 20260510041540 | 15 | 0 | 0.0 | 3.2 | 0.00 | 0.00 | 0.00 | 86 | 1012.4 |
| 20260510041022 | 16 | 179 | 0.0 | 1.6 | 0.00 | 0.00 | 0.00 | 86 | 1012.3 |
| 20260510040742 | 16 | 179 | 0.0 | 0.0 | 0.00 | 0.00 | 0.00 | 86 | 1014.5 |
| 20260510040523 | 16 | 0 | 0.0 | 1.6 | 0.00 | 0.00 | 0.00 | 86 | 1012.3 |
| 20260510040049 | 16 | 0 | 0.0 | 1.6 | 0.00 | 0.00 | 0.00 | 85 | 1012.3 |
| 20260510035728 | 16 | 179 | 0.0 | 0.0 | 0.00 | 0.00 | 0.00 | 85 | 1014.4 |
| 20260510035523 | 16 | 0 | 0.0 | 1.6 | 0.00 | 0.00 | 0.00 | 85 | 1012.4 |
| 20260510035022 | 16 | 0 | 0.0 | 3.2 | 0.00 | 0.00 | 0.00 | 85 | 1012.5 |
| 20260510034655 | 17 | 179 | 0.0 | 1.6 | 0.00 | 0.00 | 0.00 | 85 | 1014.7 |
| 20260510034542 | 16 | 0 | 0.0 | 3.2 | 0.00 | 0.00 | 0.00 | 85 | 1012.6 |
| 20260510034022 | 16 | 179 | 1.6 | 3.2 | 0.00 | 0.00 | 0.00 | 85 | 1012.6 |
| 20260510033630 | 17 | 179 | 0.0 | 1.6 | 0.00 | 0.00 | 0.00 | 84 | 1014.5 |
| 20260510033526 | 16 | 179 | 0.0 | 3.2 | 0.00 | 0.00 | 0.00 | 84 | 1012.4 |
| 20260510033042 | 17 | 0 | 1.6 | 3.2 | 0.00 | 0.00 | 0.00 | 84 | 1012.4 |
| 20260510032523 | 17 | 233 | 0.0 | 4.8 | 0.00 | 0.00 | 0.00 | 84 | 1012.5 |
| 20260510032024 | 17 | 180 | 1.6 | 4.8 | 0.00 | 0.00 | 0.00 | 84 | 1012.4 |
| 20260510031540 | 17 | 170 | 1.6 | 4.8 | 0.00 | 0.00 | 0.00 | 84 | 1012.5 |
| 20260510031022 | 17 | 181 | 1.6 | 4.8 | 0.00 | 0.00 | 0.00 | 84 | 1012.5 |
| 20260510030551 | 17 | 176 | 1.6 | 3.2 | 0.00 | 0.00 | 0.00 | 83 | 1014.5 |
| 20260510030522 | 17 | 176 | 1.6 | 4.8 | 0.00 | 0.00 | 0.00 | 83 | 1012.5 |
| 20260510030049 | 17 | 170 | 1.6 | 4.8 | 0.00 | 0.00 | 0.00 | 83 | 1012.5 |
| 20260510025522 | 17 | 172 | 1.6 | 6.4 | 0.00 | 0.00 | 0.00 | 83 | 1012.4 |
| 20260510025022 | 17 | 190 | 1.6 | 6.4 | 0.00 | 0.00 | 0.00 | 83 | 1012.3 |
| 20260510024539 | 17 | 172 | 3.2 | 9.7 | 0.00 | 0.00 | 0.00 | 83 | 1012.3 |
| 20260510024332 | 17 | 184 | 1.6 | 8.0 | 0.00 | 0.00 | 0.00 | 83 | 1014.4 |
| 20260510024022 | 17 | 193 | 1.6 | 9.7 | 0.00 | 0.00 | 0.00 | 82 | 1012.4 |
| 20260510023522 | 17 | 203 | 3.2 | 9.7 | 0.00 | 0.00 | 0.00 | 82 | 1012.2 |
| 20260510023354 | 18 | 175 | 1.6 | 8.0 | 0.00 | 0.00 | 0.00 | 82 | 1014.3 |
| 20260510023040 | 17 | 189 | 3.2 | 6.4 | 0.00 | 0.00 | 0.00 | 82 | 1012.3 |
| 20260510022522 | 17 | 185 | 1.6 | 6.4 | 0.00 | 0.00 | 0.00 | 81 | 1012.2 |
| 20260510022410 | 18 | 169 | 1.6 | 3.2 | 0.00 | 0.00 | 0.00 | 81 | 1014.2 |
| 20260510022021 | 18 | 159 | 3.2 | 4.8 | 0.00 | 0.00 | 0.00 | 81 | 1012.1 |
| 20260510021540 | 18 | 220 | 1.6 | 4.8 | 0.00 | 0.00 | 0.00 | 81 | 1012.1 |
| 20260510021337 | 18 | 175 | 0.0 | 4.8 | 0.00 | 0.00 | 0.00 | 80 | 1014.0 |
| 20260510021022 | 18 | 195 | 0.0 | 11.3 | 0.00 | 0.00 | 0.00 | 80 | 1012.0 |
| 20260510020524 | 18 | 201 | 1.6 | 11.3 | 0.00 | 0.00 | 0.00 | 80 | 1011.9 |
| 20260510020325 | 18 | 205 | 3.2 | 8.0 | 0.00 | 0.00 | 0.00 | 80 | 1014.0 |
| 20260510020041 | 18 | 206 | 4.8 | 11.3 | 0.00 | 0.00 | 0.00 | 80 | 1011.9 |
| 20260510015522 | 18 | 213 | 3.2 | 11.3 | 0.00 | 0.00 | 0.00 | 80 | 1012.0 |
| 20260510015334 | 18 | 172 | 1.6 | 8.0 | 0.00 | 0.00 | 0.00 | 80 | 1014.0 |
| 20260510015023 | 18 | 197 | 3.2 | 6.4 | 0.00 | 0.00 | 0.00 | 80 | 1011.9 |
| 20260510014536 | 18 | 193 | 1.6 | 6.4 | 0.00 | 0.00 | 0.00 | 79 | 1011.9 |
| 20260510014346 | 18 | 177 | 1.6 | 4.8 | 0.00 | 0.00 | 0.00 | 79 | 1013.9 |
| 20260510014022 | 18 | 155 | 3.2 | 6.4 | 0.00 | 0.00 | 0.00 | 79 | 1011.7 |
| 20260510013522 | 18 | 160 | 3.2 | 6.4 | 0.00 | 0.00 | 0.00 | 79 | 1011.7 |
| 20260510013403 | 18 | 177 | 1.6 | 4.8 | 0.00 | 0.00 | 0.00 | 79 | 1013.8 |
| 20260510013044 | 18 | 191 | 3.2 | 6.4 | 0.00 | 0.00 | 0.00 | 79 | 1011.6 |
| 20260510012522 | 18 | 0 | 1.6 | 6.4 | 0.00 | 0.00 | 0.00 | 80 | 1011.4 |
| 20260510012345 | 18 | 180 | 1.6 | 4.8 | 0.00 | 0.00 | 0.00 | 80 | 1013.4 |
| 20260510012022 | 18 | 0 | 1.6 | 6.4 | 0.00 | 0.00 | 0.00 | 79 | 1011.4 |
| 20260510011547 | 18 | 159 | 1.6 | 6.4 | 0.00 | 0.00 | 0.00 | 79 | 1011.2 |
| 20260510011318 | 18 | 156 | 0.0 | 3.2 | 0.00 | 0.00 | 0.00 | 78 | 1013.2 |
| 20260510011023 | 18 | 150 | 1.6 | 4.8 | 0.00 | 0.00 | 0.00 | 78 | 1011.1 |
| 20260510010522 | 18 | 212 | 0.0 | 4.8 | 0.00 | 0.00 | 0.00 | 78 | 1011.2 |
| 20260510010317 | 19 | 212 | 0.0 | 3.2 | 0.00 | 0.00 | 0.00 | 77 | 1013.1 |
| 20260510010041 | 18 | 0 | 0.0 | 9.7 | 0.00 | 0.00 | 0.00 | 77 | 1011.0 |
| 20260510005522 | 19 | 147 | 1.6 | 9.7 | 0.00 | 0.00 | 0.00 | 77 | 1010.9 |
| 20260510005300 | 19 | 143 | 1.6 | 3.2 | 0.00 | 0.00 | 0.00 | 77 | 1012.9 |
| 20260510005021 | 19 | 174 | 1.6 | 6.4 | 0.00 | 0.00 | 0.00 | 77 | 1010.8 |
| 20260510004547 | 19 | 156 | 1.6 | 4.8 | 0.00 | 0.00 | 0.00 | 76 | 1010.7 |
| 20260510004022 | 19 | 164 | 1.6 | 4.8 | 0.00 | 0.00 | 0.00 | 75 | 1010.7 |
| 20260510003522 | 20 | 188 | 1.6 | 4.8 | 0.00 | 0.00 | 0.00 | 74 | 1010.6 |
| 20260510003147 | 20 | 176 | 1.6 | 8.0 | 0.00 | 0.00 | 0.00 | 74 | 1012.6 |
| 20260510003043 | 20 | 0 | 0.0 | 6.4 | 0.00 | 0.00 | 0.00 | 74 | 1010.6 |
| 20260510002523 | 20 | 151 | 1.6 | 11.3 | 0.00 | 0.00 | 0.00 | 73 | 1010.5 |
| 20260510002156 | 20 | 156 | 3.2 | 9.7 | 0.00 | 0.00 | 0.00 | 73 | 1012.5 |
| 20260510002022 | 20 | 183 | 1.6 | 12.9 | 0.00 | 0.00 | 0.00 | 73 | 1010.6 |
| 20260510001540 | 20 | 165 | 3.2 | 12.9 | 0.00 | 0.00 | 0.00 | 73 | 1010.4 |
| 20260510001156 | 20 | 122 | 1.6 | 11.3 | 0.00 | 0.00 | 0.00 | 73 | 1012.4 |
| 20260510001022 | 20 | 195 | 4.8 | 12.9 | 0.00 | 0.00 | 0.00 | 72 | 1010.4 |
| 20260510000521 | 20 | 191 | 3.2 | 14.5 | 0.00 | 0.00 | 0.00 | 72 | 1010.4 |
| 20260510000121 | 21 | 181 | 4.8 | 16.1 | 0.00 | 0.00 | 0.00 | 72 | 1012.4 |
| 20260510000042 | 21 | 181 | 4.8 | 17.7 | 0.00 | 0.00 | 0.00 | 71 | 1010.4 |
| 20260509235522 | 21 | 192 | 4.8 | 17.7 | 0.00 | 0.00 | 0.00 | 71 | 1010.3 |
| 20260509235022 | 21 | 178 | 6.4 | 17.7 | 0.00 | 0.00 | 0.00 | 71 | 1010.3 |
| 20260509234544 | 21 | 147 | 6.4 | 17.7 | 0.00 | 0.00 | 0.00 | 71 | 1010.2 |
| 20260509234023 | 21 | 192 | 6.4 | 17.7 | 0.00 | 0.00 | 0.00 | 70 | 1010.3 |
| 20260509234021 | 21 | 230 | 6.4 | 16.1 | 0.00 | 0.00 | 0.00 | 70 | 1012.4 |
| 20260509233521 | 21 | 184 | 6.4 | 17.7 | 0.00 | 0.00 | 0.00 | 70 | 1010.2 |
| 20260509233042 | 21 | 179 | 6.4 | 12.9 | 0.00 | 0.00 | 0.00 | 70 | 1010.0 |
| 20260509233007 | 21 | 198 | 4.8 | 16.1 | 0.00 | 0.00 | 0.00 | 70 | 1012.1 |
| 20260509232523 | 21 | 237 | 4.8 | 12.9 | 0.00 | 0.00 | 0.00 | 69 | 1010.0 |
| 20260509232024 | 21 | 216 | 4.8 | 19.3 | 0.00 | 0.00 | 0.00 | 69 | 1009.9 |
| 20260509231946 | 21 | 167 | 6.4 | 16.1 | 0.00 | 0.00 | 0.00 | 69 | 1012.0 |
| 20260509231544 | 21 | 181 | 8.0 | 19.3 | 0.00 | 0.00 | 0.00 | 69 | 1010.0 |
| 20260509231022 | 21 | 206 | 4.8 | 19.3 | 0.00 | 0.00 | 0.00 | 68 | 1010.0 |
| 20260509230522 | 21 | 206 | 6.4 | 19.3 | 0.00 | 0.00 | 0.00 | 67 | 1009.9 |
| 20260509230040 | 22 | 182 | 4.8 | 16.1 | 0.00 | 0.00 | 0.00 | 67 | 1009.7 |
| 20260509225806 | 22 | 154 | 6.4 | 14.5 | 0.00 | 0.00 | 0.00 | 66 | 1011.9 |
| 20260509225523 | 22 | 175 | 4.8 | 16.1 | 0.00 | 0.00 | 0.00 | 66 | 1009.7 |
| 20260509225022 | 22 | 208 | 9.7 | 16.1 | 0.00 | 0.00 | 0.00 | 65 | 1009.6 |
| 20260509224805 | 22 | 195 | 4.8 | 14.5 | 0.00 | 0.00 | 0.00 | 65 | 1011.6 |
| 20260509224542 | 22 | 172 | 4.8 | 17.7 | 0.00 | 0.00 | 0.00 | 64 | 1009.5 |
| 20260509224022 | 22 | 174 | 6.4 | 17.7 | 0.00 | 0.00 | 0.00 | 64 | 1009.4 |
| 20260509223827 | 22 | 151 | 4.8 | 17.7 | 0.00 | 0.00 | 0.00 | 64 | 1011.5 |
| 20260509223522 | 22 | 181 | 4.8 | 20.9 | 0.00 | 0.00 | 0.00 | 63 | 1009.4 |
| 20260509223036 | 22 | 152 | 4.8 | 20.9 | 0.00 | 0.00 | 0.00 | 62 | 1009.6 |
| 20260509222836 | 23 | 188 | 8.0 | 17.7 | 0.00 | 0.00 | 0.00 | 62 | 1011.6 |
| 20260509222522 | 22 | 184 | 6.4 | 20.9 | 0.00 | 0.00 | 0.00 | 62 | 1009.5 |
| 20260509222022 | 23 | 125 | 8.0 | 17.7 | 0.00 | 0.00 | 0.00 | 62 | 1009.7 |
| 20260509221830 | 23 | 160 | 8.0 | 14.5 | 0.00 | 0.00 | 0.00 | 61 | 1011.7 |
| 20260509221535 | 23 | 230 | 8.0 | 17.7 | 0.00 | 0.00 | 0.00 | 60 | 1009.6 |
| 20260509221022 | 23 | 137 | 9.7 | 17.7 | 0.00 | 0.00 | 0.00 | 60 | 1009.5 |
| 20260509220826 | 23 | 187 | 6.4 | 14.5 | 0.00 | 0.00 | 0.00 | 61 | 1011.6 |
| 20260509220523 | 23 | 210 | 6.4 | 20.9 | 0.00 | 0.00 | 0.00 | 61 | 1009.5 |
| 20260509220041 | 23 | 107 | 9.7 | 20.9 | 0.00 | 0.00 | 0.00 | 61 | 1009.6 |
| 20260509215753 | 23 | 138 | 6.4 | 24.1 | 0.00 | 0.00 | 0.00 | 60 | 1011.5 |
| 20260509215522 | 23 | 192 | 9.7 | 20.9 | 0.00 | 0.00 | 0.00 | 60 | 1009.6 |
| 20260509215021 | 23 | 215 | 6.4 | 25.7 | 0.00 | 0.00 | 0.00 | 59 | 1009.5 |
| 20260509214734 | 23 | 181 | 8.0 | 24.1 | 0.00 | 0.00 | 0.00 | 61 | 1011.6 |
| 20260509214541 | 23 | 171 | 12.9 | 25.7 | 0.00 | 0.00 | 0.00 | 60 | 1009.5 |
| 20260509214021 | 23 | 183 | 8.0 | 19.3 | 0.00 | 0.00 | 0.00 | 59 | 1009.4 |
| 20260509213747 | 24 | 193 | 6.4 | 17.7 | 0.00 | 0.00 | 0.00 | 61 | 1011.5 |
| 20260509213522 | 23 | 218 | 6.4 | 19.3 | 0.00 | 0.00 | 0.00 | 61 | 1009.5 |
| 20260509213045 | 23 | 176 | 8.0 | 16.1 | 0.00 | 0.00 | 0.00 | 62 | 1009.5 |
| 20260509212725 | 23 | 131 | 6.4 | 19.3 | 0.00 | 0.00 | 0.00 | 63 | 1011.5 |
| 20260509212522 | 22 | 222 | 6.4 | 16.1 | 0.00 | 0.00 | 0.00 | 64 | 1009.4 |
| 20260509212022 | 22 | 199 | 8.0 | 20.9 | 0.00 | 0.00 | 0.00 | 63 | 1009.6 |
| 20260509211726 | 22 | 173 | 8.0 | 19.3 | 0.00 | 0.00 | 0.00 | 62 | 1011.7 |
| 20260509211541 | 22 | 153 | 8.0 | 20.9 | 0.00 | 0.00 | 0.00 | 62 | 1009.5 |
| 20260509211022 | 22 | 162 | 11.3 | 20.9 | 0.00 | 0.00 | 0.00 | 61 | 1009.4 |
| 20260509210702 | 23 | 252 | 6.4 | 16.1 | 0.00 | 0.00 | 0.00 | 60 | 1011.5 |
| 20260509210525 | 23 | 176 | 8.0 | 17.7 | 0.00 | 0.00 | 0.00 | 60 | 1009.4 |
| 20260509210053 | 22 | 209 | 8.0 | 19.3 | 0.00 | 0.00 | 0.00 | 61 | 1009.3 |
| 20260509205642 | 23 | 187 | 8.0 | 24.1 | 0.00 | 0.00 | 0.00 | 60 | 1011.2 |
| 20260509205522 | 23 | 199 | 9.7 | 19.3 | 0.00 | 0.00 | 0.00 | 60 | 1009.1 |
| 20260509205023 | 22 | 193 | 8.0 | 25.7 | 0.00 | 0.00 | 0.00 | 60 | 1009.1 |
| 20260509204634 | 23 | 179 | 9.7 | 24.1 | 0.00 | 0.00 | 0.00 | 61 | 1011.1 |
| 20260509204544 | 23 | 176 | 6.4 | 25.7 | 0.00 | 0.00 | 0.00 | 60 | 1009.1 |
| 20260509204027 | 23 | 176 | 12.9 | 25.7 | 0.00 | 0.00 | 0.00 | 60 | 1009.2 |
| 20260509203641 | 23 | 137 | 11.3 | 22.5 | 0.00 | 0.00 | 0.00 | 62 | 1011.2 |
| 20260509203521 | 23 | 157 | 11.3 | 22.5 | 0.00 | 0.00 | 0.00 | 61 | 1009.3 |
| 20260509203042 | 23 | 139 | 11.3 | 24.1 | 0.00 | 0.00 | 0.00 | 61 | 1009.4 |
| 20260509202640 | 23 | 147 | 9.7 | 22.5 | 0.00 | 0.00 | 0.00 | 61 | 1011.5 |
| 20260509202524 | 23 | 187 | 6.4 | 24.1 | 0.00 | 0.00 | 0.00 | 61 | 1009.4 |
| 20260509202022 | 23 | 178 | 12.9 | 24.1 | 0.00 | 0.00 | 0.00 | 63 | 1009.4 |
| 20260509201653 | 23 | 157 | 9.7 | 19.3 | 0.00 | 0.00 | 0.00 | 60 | 1011.5 |
| 20260509201542 | 23 | 170 | 9.7 | 20.9 | 0.00 | 0.00 | 0.00 | 61 | 1009.6 |
| 20260509201025 | 23 | 189 | 9.7 | 20.9 | 0.00 | 0.00 | 0.00 | 62 | 1009.4 |
| 20260509200522 | 23 | 176 | 9.7 | 22.5 | 0.00 | 0.00 | 0.00 | 62 | 1009.5 |
| 20260509200040 | 22 | 160 | 6.4 | 22.5 | 0.00 | 0.00 | 0.00 | 62 | 1009.5 |
| 20260509195525 | 24 | 118 | 6.4 | 19.3 | 0.00 | 0.00 | 0.00 | 60 | 1011.6 |
| 20260509195521 | 23 | 118 | 9.7 | 19.3 | 0.00 | 0.00 | 0.00 | 60 | 1009.5 |
| 20260509195022 | 23 | 150 | 8.0 | 20.9 | 0.00 | 0.00 | 0.00 | 63 | 1009.5 |
| 20260509194540 | 23 | 149 | 9.7 | 20.9 | 0.00 | 0.00 | 0.00 | 62 | 1009.5 |
| 20260509194022 | 23 | 154 | 11.3 | 20.9 | 0.00 | 0.00 | 0.00 | 62 | 1009.6 |
| 20260509193525 | 23 | 185 | 6.4 | 16.1 | 0.00 | 0.00 | 0.00 | 63 | 1009.9 |
| 20260509193418 | 23 | 202 | 4.8 | 24.1 | 0.00 | 0.00 | 0.00 | 62 | 1011.7 |
| 20260509193043 | 22 | 226 | 3.2 | 16.1 | 0.00 | 0.00 | 0.00 | 65 | 1009.8 |
| 20260509192523 | 22 | 110 | 6.4 | 29.0 | 0.00 | 0.00 | 0.00 | 65 | 1010.0 |
| 20260509192406 | 22 | 148 | 8.0 | 24.1 | 0.00 | 0.00 | 0.00 | 65 | 1012.0 |
| 20260509192022 | 22 | 195 | 9.7 | 29.0 | 0.00 | 0.00 | 0.00 | 65 | 1010.0 |
| 20260509191540 | 22 | 210 | 9.7 | 29.0 | 0.00 | 0.00 | 0.00 | 66 | 1010.0 |
| 20260509191419 | 22 | 176 | 6.4 | 17.7 | 0.00 | 0.00 | 0.00 | 66 | 1012.0 |
| 20260509191025 | 21 | 193 | 4.8 | 17.7 | 0.00 | 0.00 | 0.00 | 67 | 1010.1 |
| 20260509190522 | 21 | 162 | 9.7 | 19.3 | 0.00 | 0.00 | 0.00 | 67 | 1010.1 |
| 20260509190044 | 22 | 185 | 6.4 | 19.3 | 0.00 | 0.00 | 0.00 | 65 | 1010.0 |
| 20260509185523 | 22 | 181 | 4.8 | 16.1 | 0.00 | 0.00 | 0.00 | 66 | 1010.0 |
| 20260509185306 | 22 | 150 | 4.8 | 17.7 | 0.00 | 0.00 | 0.00 | 67 | 1012.0 |
| 20260509185023 | 22 | 273 | 4.8 | 22.5 | 0.00 | 0.00 | 0.00 | 67 | 1010.0 |
| 20260509184551 | 21 | 219 | 6.4 | 22.5 | 0.00 | 0.00 | 0.00 | 67 | 1010.1 |